Location: Mahannah Oil Field
(37.4664°N, 96.6003°W)
Time: 00:42:38
(UTC+00:00)

Vanguard 3 - Pass Details

Date: 21 January 2021
Orbit: 508 x 3262 km, 33.4° (Epoch: 03 March)

Event Time Altitude Azimuth Distance (km) Brightness Sun altitude
Exits shadow 11:53:43 24° 249° (WSW) 2,587 9.2 -20.4°
Maximum altitude 11:59:48 71° 171° (S) 1,934 9.0 -19.2°
Drops below altitude 10° 12:15:06 10° 92° (E) 5,553 12.7 -16.2°
Sets 12:20:12 0° 91° (E) 6,868 13.5 -15.3°
